Location: Central Falls
(41.8900°N, 71.3929°W)
Time: 02:22:47
(UTC+00:00)

Tiros 1 - Pass Details

Date: 13 December 2023
Orbit: 625 x 658 km, 48.4° (Epoch: 01 March)

Event Time Altitude Azimuth Distance (km) Brightness Sun altitude
Rises 07:35:18 0° 266° (W) 2,965 - -49.1°
Reaches altitude 10° 07:37:43 10° 273° (W) 2,060 - -48.6°
Maximum altitude 07:42:17 45° 346° (NNW) 896 - -47.8°
Drops below altitude 10° 07:46:53 10° 60° (ENE) 2,074 - -46.9°
Exits shadow 07:48:30 - 65° (ENE) 2,677 10.9 -46.6°
Sets 07:49:20 0° 67° (ENE) 2,988 11.3 -46.5°
